TimeCST,TemperatureF,Dew PointF,Humidity,Sea Level PressureIn,VisibilityMPH,Wind Direction,Wind SpeedMPH,Gust SpeedMPH,PrecipitationIn,Events,Conditions,WindDirDegrees,DateUTC
12:15 AM,23.0,12.2,63,30.26,10.0,NNW,8.1,-,N/A,,Clear,330,2013-02-16 06:15:00
12:35 AM,23.0,12.2,63,30.26,10.0,NNW,8.1,-,N/A,,Clear,330,2013-02-16 06:35:00
12:55 AM,23.0,12.2,63,30.26,10.0,North,5.8,-,N/A,,Clear,350,2013-02-16 06:55:00
1:15 AM,23.0,12.2,63,30.26,10.0,North,10.4,-,N/A,,Clear,350,2013-02-16 07:15:00
1:35 AM,21.2,10.4,63,30.26,10.0,NNW,11.5,17.3,N/A,,Clear,330,2013-02-16 07:35:00
1:55 AM,21.2,10.4,63,30.26,10.0,NNW,8.1,-,N/A,,Clear,340,2013-02-16 07:55:00
2:15 AM,21.2,10.4,63,30.26,10.0,NNW,5.8,-,N/A,,Clear,330,2013-02-16 08:15:00
2:35 AM,19.4,8.6,63,30.26,10.0,NNW,6.9,-,N/A,,Clear,340,2013-02-16 08:35:00
2:55 AM,19.4,6.8,58,30.26,10.0,NNW,8.1,-,N/A,,Clear,340,2013-02-16 08:55:00
3:15 AM,19.4,6.8,58,30.26,10.0,NNW,6.9,-,N/A,,Clear,340,2013-02-16 09:15:00
3:35 AM,19.4,6.8,58,30.26,10.0,NNW,8.1,-,N/A,,Clear,330,2013-02-16 09:35:00
3:55 AM,19.4,6.8,58,30.25,10.0,NNW,5.8,-,N/A,,Clear,330,2013-02-16 09:55:00
4:15 AM,19.4,6.8,58,30.25,10.0,NNW,4.6,-,N/A,,Clear,330,2013-02-16 10:15:00
4:35 AM,17.6,6.8,63,30.25,10.0,NNW,3.5,-,N/A,,Clear,330,2013-02-16 10:35:00
4:55 AM,17.6,6.8,63,30.25,10.0,Calm,Calm,-,N/A,,Clear,0,2013-02-16 10:55:00
5:15 AM,17.6,6.8,63,30.25,10.0,Calm,Calm,-,N/A,,Clear,0,2013-02-16 11:15:00
5:35 AM,17.6,6.8,63,30.25,10.0,Calm,Calm,-,N/A,,Clear,0,2013-02-16 11:35:00
5:55 AM,17.6,6.8,63,30.25,10.0,WNW,3.5,-,N/A,,Clear,300,2013-02-16 11:55:00
6:15 AM,17.6,6.8,63,30.25,10.0,Calm,Calm,-,N/A,,Clear,0,2013-02-16 12:15:00
6:35 AM,15.8,6.8,68,30.25,10.0,Calm,Calm,-,N/A,,Clear,0,2013-02-16 12:35:00
6:55 AM,15.8,6.8,68,30.25,10.0,West,3.5,-,N/A,,Clear,280,2013-02-16 12:55:00
7:15 AM,15.8,6.8,68,30.26,10.0,West,3.5,-,N/A,,Clear,280,2013-02-16 13:15:00
7:35 AM,17.6,8.6,68,30.26,10.0,Calm,Calm,-,N/A,,Clear,0,2013-02-16 13:35:00
7:55 AM,19.4,8.6,63,30.26,10.0,West,4.6,-,N/A,,Clear,280,2013-02-16 13:55:00
8:15 AM,19.4,10.4,68,30.26,10.0,West,5.8,-,N/A,,Clear,280,2013-02-16 14:15:00
8:35 AM,21.2,10.4,63,30.26,10.0,WNW,5.8,-,N/A,,Clear,290,2013-02-16 14:35:00
8:55 AM,21.2,10.4,63,30.26,10.0,WNW,6.9,-,N/A,,Clear,300,2013-02-16 14:55:00
9:15 AM,23.0,10.4,59,30.26,10.0,WNW,9.2,-,N/A,,Clear,290,2013-02-16 15:15:00
9:35 AM,24.8,8.6,50,30.26,10.0,West,10.4,-,N/A,,Clear,260,2013-02-16 15:35:00
12:15 PM,30.2,8.6,40,30.21,10.0,WNW,4.6,16.1,N/A,,Clear,290,2013-02-16 18:15:00
12:35 PM,32.0,8.6,38,30.19,10.0,WSW,9.2,-,N/A,,Clear,250,2013-02-16 18:35:00
12:55 PM,33.8,8.6,35,30.18,10.0,West,10.4,-,N/A,,Clear,270,2013-02-16 18:55:00
1:15 PM,33.8,8.6,35,30.18,10.0,WNW,9.2,-,N/A,,Clear,290,2013-02-16 19:15:00
1:35 PM,33.8,8.6,35,30.17,10.0,West,15.0,19.6,N/A,,Scattered Clouds,270,2013-02-16 19:35:00
1:55 PM,35.6,8.6,33,30.17,10.0,West,9.2,-,N/A,,Scattered Clouds,270,2013-02-16 19:55:00
2:15 PM,35.6,8.6,33,30.16,10.0,WSW,8.1,11.5,N/A,,Mostly Cloudy,250,2013-02-16 20:15:00
2:35 PM,35.6,8.6,33,30.16,10.0,West,5.8,16.1,N/A,,Mostly Cloudy,260,2013-02-16 20:35:00
2:55 PM,35.6,8.6,33,30.16,10.0,West,10.4,16.1,N/A,,Mostly Cloudy,260,2013-02-16 20:55:00
3:15 PM,35.6,8.6,33,30.16,10.0,WNW,12.7,17.3,N/A,,Scattered Clouds,300,2013-02-16 21:15:00
3:35 PM,35.6,8.6,33,30.16,10.0,West,8.1,-,N/A,,Scattered Clouds,270,2013-02-16 21:35:00
3:55 PM,35.6,8.6,33,30.16,10.0,WNW,4.6,-,N/A,,Scattered Clouds,300,2013-02-16 21:55:00
4:15 PM,35.6,8.6,33,30.15,10.0,WNW,6.9,10.4,N/A,,Scattered Clouds,300,2013-02-16 22:15:00
4:35 PM,33.8,10.4,38,30.16,10.0,West,5.8,-,N/A,,Clear,270,2013-02-16 22:35:00
4:55 PM,33.8,8.6,35,30.15,10.0,West,6.9,-,N/A,,Clear,270,2013-02-16 22:55:00
5:15 PM,33.8,10.4,38,30.15,10.0,WNW,5.8,-,N/A,,Clear,290,2013-02-16 23:15:00
5:35 PM,32.0,10.4,41,30.15,10.0,WNW,4.6,-,N/A,,Clear,300,2013-02-16 23:35:00
5:55 PM,32.0,10.4,41,30.15,10.0,Calm,Calm,-,N/A,,Clear,0,2013-02-16 23:55:00
6:15 PM,30.2,12.2,47,30.16,10.0,Calm,Calm,-,N/A,,Clear,0,2013-02-17 00:15:00
6:35 PM,30.2,10.4,44,30.16,10.0,Calm,Calm,-,N/A,,Clear,0,2013-02-17 00:35:00
6:55 PM,30.2,12.2,47,30.16,10.0,Calm,Calm,-,N/A,,Clear,0,2013-02-17 00:55:00
7:15 PM,28.4,14.0,55,30.16,10.0,Calm,Calm,-,N/A,,Clear,0,2013-02-17 01:15:00
7:35 PM,26.6,12.2,55,30.16,10.0,Calm,Calm,-,N/A,,Clear,0,2013-02-17 01:35:00
7:55 PM,26.6,15.8,64,30.16,10.0,ENE,3.5,-,N/A,,Clear,70,2013-02-17 01:55:00
8:15 PM,26.6,12.2,55,30.16,10.0,Calm,Calm,-,N/A,,Clear,0,2013-02-17 02:15:00
8:35 PM,26.6,14.0,59,30.16,10.0,Calm,Calm,-,N/A,,Clear,0,2013-02-17 02:35:00
8:55 PM,24.8,15.8,69,30.17,10.0,East,3.5,-,N/A,,Clear,80,2013-02-17 02:55:00
9:15 PM,26.6,15.8,64,30.17,10.0,East,4.6,-,N/A,,Clear,80,2013-02-17 03:15:00
9:35 PM,24.8,15.8,69,30.17,10.0,East,4.6,-,N/A,,Clear,80,2013-02-17 03:35:00
9:55 PM,24.8,14.0,64,30.17,10.0,East,5.8,-,N/A,,Clear,80,2013-02-17 03:55:00
10:15 PM,24.8,14.0,64,30.16,10.0,East,6.9,-,N/A,,Clear,80,2013-02-17 04:15:00
10:35 PM,24.8,14.0,64,30.16,10.0,East,5.8,-,N/A,,Clear,100,2013-02-17 04:35:00
10:55 PM,24.8,15.8,69,30.16,10.0,East,6.9,-,N/A,,Clear,100,2013-02-17 04:55:00
11:15 PM,24.8,15.8,69,30.15,10.0,ESE,5.8,-,N/A,,Clear,110,2013-02-17 05:15:00
11:35 PM,23.0,14.0,68,30.15,10.0,East,6.9,-,N/A,,Clear,100,2013-02-17 05:35:00
11:55 PM,23.0,14.0,68,30.15,10.0,ESE,6.9,-,N/A,,Clear,110,2013-02-17 05:55:00